User: anonymous   Login
Location: Larrial
(48.2758°N, 4.5331°W)
Time: 09:52:47
(UTC+00:00)
Language:

METEOR M2 - Orbit

View from above orbital plane
View from above orbital plane
View from above satellite
View from above satellite

Ground track
Ground track

The orbit data is extracted from the following two-line orbital elements,

1 40069U 14037A   21334.29418877 -.00000028  00000-0  60636-5 0  9990
2 40069  98.4475 356.0406 0005812 169.3489 190.7813 14.20692282383580
Epoch (UTC): 30 November 2021 07:03:37
Eccentricity: 0.0005812
inclination: 98.4475°
perigee height: 819 km
apogee height: 827 km
right ascension of ascending node: 356.0406°
argument of perigee: 169.3489°
revolutions per day: 14.20692282
mean anomaly at epoch: 190.7813°
orbit number at epoch: 38358

The dashed part of the orbit path shows where the satellite is in the earth's shadow,  

DLR